[[{"header":{"parameterUnit":"m.s-1","parameterCategory":1,"la1":30.2991,"la2":30.254,"lo1":-89.0895,"lo2":-89.0444,"dy":0.0017,"dx":0.0017,"nx":28,"ny":28,"refTime":"2024-08-03T03:00:00:Z","depth":0,"parameterNumber":2,"parameterNumberName":"U-component_of_WINDS"},"data":[0,0,0,0,0,0,0,0,0,0,0,0,0,0,0,0,0,0,0,0,0,0,0,0,0,0,0,0,0,0,0,0,0,0,0,0,0,0,0,0,0,0,0,0,0,0,0,0,0,0,0,0,0,0,0,0,0,0,-0.4835,-0.4835,0,-0.4839,-0.4839,-0.4839,-0.4841,-0.4841,-0.4841,-0.4841,-0.4845,-0.4845,-0.4845,0,0,0,0,0,0,0,0,0,0,0,0,0,-0.4829,-0.4829,-0.4835,-0.4835,-0.4835,-0.4839,-0.4839,-0.4839,-0.4841,-0.4841,-0.4841,-0.4841,-0.4845,-0.4845,-0.4845,0,0,0,0,0,0,0,0,0,0,0,0,0,-0.4832,-0.4829,-0.4835,-0.4836,-0.4836,-0.4839,-0.4839,-0.4839,-0.4841,-0.4841,-0.4841,-0.4841,-0.4845,-0.4845,-0.4845,-0.4846,0,0,-0.4846,-0.4846,0,0,0,0,0,0,0,0,-0.4832,-0.4832,-0.4836,-0.4836,-0.4836,-0.4839,-0.4838,-0.4841,-0.4841,-0.4839,-0.4841,-0.4841,-0.4843,-0.4844,-0.4844,-0.4846,-0.4846,-0.4846,-0.4846,-0.4846,-0.4846,0,0,0,0,0,0,0,-0.4831,-0.4832,-0.4836,-0.4836,-0.4836,-0.4837,-0.4837,-0.4839,-0.4841,-0.4839,-0.484,-0.484,-0.4843,-0.4844,-0.4844,-0.4846,-0.4846,-0.4846,-0.4846,-0.4846,-0.4849,-0.4849,0,0,0,0,0,0,-0.4831,-0.4832,-0.4836,-0.4836,-0.4834,-0.4837,-0.4837,-0.4838,-0.4841,-0.4842,-0.484,-0.484,-0.4844,-0.4844,-0.4845,-0.4845,-0.4846,-0.4846,-0.4846,-0.4849,-0.4849,-0.4849,0,0,0,0,0,0,-0.4831,-0.4831,-0.4836,-0.4834,-0.4835,-0.4837,-0.4838,-0.4838,-0.4839,-0.4842,-0.4842,-0.484,-0.4844,-0.4844,-0.4846,-0.4846,-0.4846,-0.4846,-0.4849,-0.4849,-0.4849,-0.4847,0,0,0,0,0,0,-0.4831,-0.4831,-0.4832,-0.4834,-0.4835,-0.4837,-0.4838,-0.4839,-0.4839,-0.484,-0.4842,-0.4842,-0.4844,-0.4845,-0.4846,-0.4846,-0.4846,-0.4849,-0.4849,-0.4849,-0.4847,-0.4847,-0.4847,0,0,0,0,0,-0.483,-0.4831,-0.4832,-0.4832,-0.4835,-0.4837,-0.4837,-0.4839,-0.4839,-0.484,-0.4841,-0.4842,-0.4845,-0.4845,-0.4846,-0.4846,-0.4849,-0.4849,-0.4849,-0.4847,-0.4847,-0.4847,0,0,0,0,0,0,-0.4828,-0.4831,-0.4832,-0.4833,-0.4835,-0.4837,-0.4838,-0.4839,-0.484,-0.484,-0.4842,-0.4843,-0.4844,-0.4845,-0.4845,-0.4847,-0.4847,-0.4847,-0.4846,-0.4846,-0.4846,-0.4845,-0.4847,0,0,0,0,0,-0.4828,-0.4829,-0.4832,-0.4833,-0.4833,-0.4835,-0.4836,-0.4837,-0.4839,-0.484,-0.4841,-0.4843,-0.4844,-0.4845,-0.4846,-0.4847,-0.4848,-0.4848,-0.4847,-0.4847,-0.4847,-0.4848,-0.4848,-0.4849,-0.4849,-0.4849,0,0,-0.4828,-0.4829,-0.483,-0.4832,-0.4834,-0.4835,-0.4836,-0.4837,-0.4838,-0.484,-0.4841,-0.4842,-0.4844,-0.4845,-0.4846,-0.4846,-0.4847,-0.4847,-0.4847,-0.4847,-0.4848,-0.4848,-0.4848,-0.4849,-0.4849,-0.4849,0,0,-0.4827,-0.4829,-0.483,-0.4831,-0.4833,-0.4834,-0.4834,-0.4837,-0.4837,-0.4839,-0.484,-0.4841,-0.4843,-0.4844,-0.4845,-0.4845,-0.4846,-0.4845,-0.4845,-0.4845,-0.4845,-0.4845,-0.4845,-0.4845,-0.4845,-0.4845,-0.4845,0,-0.4826,-0.4828,-0.483,-0.4831,-0.4832,-0.4834,-0.4835,-0.4836,-0.4838,-0.4838,-0.4839,-0.4842,-0.4843,-0.4844,-0.4844,-0.4845,-0.4845,-0.4845,-0.4845,-0.4845,-0.4845,-0.4845,-0.4845,-0.4845,-0.4845,-0.4845,-0.4845,0,-0.4827,-0.4828,-0.4829,-0.4831,-0.4832,-0.4833,-0.4835,-0.4835,-0.4836,-0.4838,-0.4839,-0.484,-0.4842,-0.4842,-0.4843,-0.4844,-0.4844,-0.4845,-0.4845,-0.4845,-0.4845,-0.4845,-0.4845,-0.4845,-0.4845,-0.4845,0,0,-0.4826,-0.4829,-0.4829,-0.483,-0.4832,-0.4833,-0.4834,-0.4835,-0.4836,-0.4837,-0.4838,-0.484,-0.484,-0.4841,-0.4843,-0.4843,-0.4843,-0.4844,-0.4844,-0.4843,-0.4843,-0.4843,-0.4843,-0.4843,-0.4843,-0.4843,-0.4843,0,-0.4826,-0.4828,-0.4829,-0.4831,-0.4832,-0.4833,-0.4834,-0.4835,-0.4836,-0.4837,-0.4838,-0.484,-0.484,-0.4841,-0.4841,-0.4843,-0.4843,-0.4843,-0.4844,-0.4844,-0.4844,-0.4843,-0.4842,-0.4842,-0.4843,-0.4843,-0.4843,0,-0.4826,-0.4828,-0.4829,-0.4831,-0.4831,-0.4832,-0.4833,-0.4834,-0.4836,-0.4837,-0.4838,-0.4839,-0.484,-0.484,-0.4841,-0.4841,-0.4842,-0.4843,-0.4843,-0.4843,-0.4843,-0.4843,-0.4842,-0.4842,-0.4843,-0.4843,-0.4843,0,-0.4825,-0.4827,-0.4828,-0.4829,-0.4831,-0.4832,-0.4833,-0.4834,-0.4835,-0.4836,-0.4837,-0.4838,-0.4839,-0.484,-0.4841,-0.4841,-0.4842,-0.4843,-0.4843,-0.4843,-0.4843,-0.4843,-0.4842,-0.4843,-0.4843,-0.4843,-0.4843,0,-0.4825,-0.4826,-0.4828,-0.4829,-0.483,-0.4831,-0.4832,-0.4833,-0.4834,-0.4835,-0.4836,-0.4837,-0.4839,-0.4839,-0.484,-0.4841,-0.4842,-0.4842,-0.4842,-0.4842,-0.4842,-0.4843,-0.4843,-0.4843,-0.4843,-0.4843,-0.4843,0,-0.4824,-0.4826,-0.4827,-0.4829,-0.4829,-0.483,-0.4831,-0.4832,-0.4833,-0.4834,-0.4834,-0.4836,-0.4837,-0.4839,-0.484,-0.4841,-0.4841,-0.4842,-0.4841,-0.4841,-0.4841,-0.4841,-0.4841,-0.4841,-0.4842,-0.4842,-0.4842,0,-0.4824,-0.4825,-0.4827,-0.4827,-0.4828,-0.4829,-0.483,-0.4831,-0.4832,-0.4834,-0.4834,-0.4835,-0.4836,-0.4838,-0.4839,-0.484,-0.4841,-0.4841,-0.4841,-0.4841,-0.4841,-0.4841,-0.4841,-0.4841,-0.4841,-0.4841,-0.4841,0,-0.4824,-0.4825,-0.4826,-0.4827,-0.4828,-0.4829,-0.483,-0.483,-0.4832,-0.4833,-0.4834,-0.4835,-0.4836,-0.4837,-0.4838,-0.4839,-0.484,-0.484,-0.484,-0.484,-0.484,-0.484,-0.4841,-0.484,-0.484,-0.484,-0.484,-0.484,-0.4824,-0.4824,-0.4826,-0.4827,-0.4828,-0.4829,-0.4829,-0.483,-0.4831,-0.4833,-0.4833,-0.4834,-0.4836,-0.4837,-0.4838,-0.4839,-0.4839,-0.4839,-0.4839,-0.4839,-0.4839,-0.4839,-0.4839,-0.4839,-0.4839,-0.4839,-0.4839,0,-0.4824,-0.4824,-0.4825,-0.4827,-0.4828,-0.4828,-0.4829,-0.483,-0.4831,-0.4832,-0.4833,-0.4834,-0.4835,-0.4836,-0.4838,-0.4838,-0.4838,-0.4838,-0.4838,-0.4838,-0.4839,-0.4839,-0.4838,-0.4838,-0.4838,-0.4838,-0.4838,-0.4838,-0.4824,-0.4825,-0.4825,-0.4827,-0.4827,-0.4829,-0.4829,-0.483,-0.4831,-0.4832,-0.4833,-0.4834,-0.4835,-0.4836,-0.4837,-0.4837,-0.4838,-0.4837,-0.4838,-0.4838,-0.4838,-0.4838,-0.4838,-0.4837,-0.4837,-0.4837,-0.4837,-0.4837]},{"header":{"parameterUnit":"m.s-1","parameterCategory":1,"la1":30.2991,"la2":30.254,"lo1":-89.0895,"lo2":-89.0444,"dy":0.0017,"dx":0.0017,"nx":28,"ny":28,"refTime":"2024-08-03T03:00:00:Z","depth":0,"parameterNumber":3,"parameterNumberName":"V-component_of_WINDS"},"data":[0,0,0,0,0,0,0,0,0,0,0,0,0,0,0,0,0,0,0,0,0,0,0,0,0,0,0,0,0,0,0,0,0,0,0,0,0,0,0,0,0,0,0,0,0,0,0,0,0,0,0,0,0,0,0,0,0,0,1.4228,1.4228,0,1.4201,1.42,1.42,1.4154,1.4153,1.4153,1.4152,1.4122,1.4122,1.4122,0,0,0,0,0,0,0,0,0,0,0,0,0,1.424,1.424,1.4228,1.4228,1.4228,1.4201,1.42,1.42,1.4154,1.4153,1.4152,1.4151,1.4122,1.4122,1.4122,0,0,0,0,0,0,0,0,0,0,0,0,0,1.4226,1.424,1.4228,1.4202,1.4199,1.4201,1.42,1.42,1.4155,1.4153,1.4152,1.4151,1.4122,1.4122,1.4122,1.4148,0,0,1.4122,1.4122,0,0,0,0,0,0,0,0,1.4227,1.4226,1.4206,1.4204,1.4201,1.418,1.4193,1.4182,1.4155,1.4172,1.4152,1.415,1.4142,1.4141,1.4138,1.4146,1.4145,1.4122,1.4122,1.4122,1.4122,0,0,0,0,0,0,0,1.4228,1.4226,1.4217,1.4206,1.4203,1.4191,1.4187,1.4191,1.4164,1.417,1.4167,1.4164,1.4141,1.4138,1.4137,1.4144,1.4122,1.4122,1.4122,1.4122,1.4169,1.417,0,0,0,0,0,0,1.4233,1.4228,1.4218,1.4216,1.4211,1.4191,1.4188,1.4188,1.4164,1.4159,1.4165,1.4162,1.4139,1.4137,1.4136,1.4162,1.4122,1.4122,1.4122,1.4167,1.4169,1.417,0,0,0,0,0,0,1.4233,1.4233,1.4219,1.4221,1.4218,1.4192,1.4193,1.4188,1.4185,1.416,1.4155,1.4168,1.4138,1.4136,1.4144,1.416,1.4122,1.4122,1.4166,1.4168,1.4169,1.4215,0,0,0,0,0,0,1.4234,1.4233,1.4243,1.4222,1.4219,1.4229,1.4194,1.4188,1.4186,1.4181,1.4162,1.4157,1.4137,1.4145,1.4144,1.4159,1.4122,1.4164,1.4167,1.4169,1.4212,1.4218,1.4223,0,0,0,0,0,1.4235,1.4257,1.4244,1.4243,1.423,1.423,1.4228,1.4205,1.4187,1.4196,1.418,1.4158,1.4159,1.4146,1.4145,1.4161,1.4163,1.4166,1.4169,1.4209,1.4217,1.4223,0,0,0,0,0,0,1.4281,1.4254,1.4239,1.4255,1.4245,1.4222,1.4233,1.4214,1.4209,1.4205,1.4175,1.4171,1.4183,1.4173,1.4159,1.4182,1.4157,1.416,1.4188,1.4195,1.4201,1.4202,1.4122,0,0,0,0,0,1.4293,1.4296,1.4272,1.4288,1.4284,1.426,1.4259,1.4241,1.423,1.4225,1.421,1.4199,1.4196,1.4195,1.4192,1.421,1.4204,1.422,1.4226,1.4231,1.4233,1.4239,1.4246,1.4179,1.4179,1.4179,0,0,1.4318,1.4304,1.4307,1.4297,1.4288,1.429,1.4257,1.4261,1.4262,1.4226,1.4232,1.422,1.4206,1.4219,1.4224,1.4211,1.425,1.4234,1.4238,1.4238,1.4243,1.4249,1.4255,1.4181,1.4181,1.418,0,0,1.4365,1.4355,1.4367,1.4357,1.4343,1.4326,1.4329,1.4309,1.4299,1.4306,1.4278,1.4278,1.4276,1.4266,1.4261,1.4302,1.428,1.4301,1.4331,1.4338,1.4343,1.4347,1.436,1.4365,1.4304,1.4304,1.4304,0,1.4397,1.44,1.4375,1.438,1.4376,1.4344,1.4354,1.4347,1.4332,1.4329,1.4315,1.4309,1.4297,1.4306,1.4316,1.4314,1.4315,1.4303,1.4344,1.4348,1.4352,1.4364,1.4369,1.4307,1.4306,1.4306,1.4306,0,1.444,1.4442,1.4454,1.4439,1.4437,1.4445,1.442,1.442,1.4403,1.4387,1.4392,1.4377,1.4369,1.437,1.4354,1.4376,1.4368,1.435,1.4324,1.4361,1.4372,1.4376,1.431,1.4309,1.4309,1.4308,0,0,1.4515,1.4486,1.449,1.4483,1.4464,1.4465,1.4471,1.4463,1.4462,1.4453,1.4456,1.4454,1.4436,1.443,1.4411,1.4418,1.4448,1.4398,1.4397,1.4406,1.4469,1.4482,1.4488,1.4434,1.4435,1.4436,1.447,0,1.4556,1.4565,1.4542,1.4556,1.4557,1.4525,1.453,1.4518,1.4504,1.4501,1.4485,1.4483,1.4461,1.4456,1.4461,1.4444,1.446,1.4441,1.4435,1.4435,1.4438,1.4494,1.4508,1.4541,1.4474,1.4475,1.4475,0,1.4605,1.4598,1.4612,1.459,1.459,1.4595,1.4584,1.4583,1.4569,1.4557,1.455,1.4529,1.4531,1.4508,1.451,1.4498,1.4494,1.4485,1.4485,1.4483,1.4457,1.4491,1.4551,1.4555,1.4482,1.4481,1.4481,0,1.4656,1.4649,1.4656,1.4651,1.4627,1.4631,1.4621,1.4605,1.4601,1.4592,1.4588,1.458,1.4575,1.4568,1.4544,1.453,1.4549,1.4524,1.4538,1.4539,1.4543,1.4542,1.4601,1.4543,1.4543,1.4543,1.4543,0,1.4703,1.4712,1.4679,1.4683,1.4692,1.4665,1.4674,1.4661,1.4647,1.4647,1.462,1.462,1.459,1.4586,1.4568,1.4571,1.457,1.4559,1.4554,1.4561,1.4562,1.4557,1.4554,1.4544,1.4544,1.4544,1.4544,0,1.4761,1.4739,1.4744,1.472,1.4714,1.4722,1.4701,1.4703,1.4686,1.4687,1.4685,1.4659,1.4653,1.4629,1.4618,1.4605,1.4614,1.4605,1.4619,1.4616,1.4631,1.4629,1.4687,1.4692,1.4633,1.4633,1.4634,0,1.4791,1.4798,1.4774,1.4773,1.4764,1.4761,1.4757,1.473,1.4727,1.4709,1.4713,1.4706,1.4698,1.469,1.4669,1.466,1.4649,1.467,1.4648,1.4654,1.4647,1.4646,1.4646,1.4675,1.4675,1.4676,1.4677,0,1.4848,1.4836,1.4831,1.4822,1.4817,1.4809,1.4798,1.4798,1.4768,1.4765,1.4759,1.4753,1.4741,1.4733,1.472,1.4708,1.4687,1.4684,1.4686,1.4693,1.47,1.4694,1.4631,1.4683,1.4682,1.4682,1.4681,1.4681,1.4891,1.4895,1.4879,1.4873,1.4863,1.4853,1.4853,1.4837,1.4831,1.4819,1.4804,1.4799,1.4783,1.4763,1.4753,1.4748,1.4736,1.474,1.4741,1.4742,1.4745,1.4702,1.4746,1.4746,1.4745,1.4745,1.4745,0,1.4945,1.4932,1.4928,1.4914,1.4909,1.489,1.4877,1.4874,1.4871,1.4857,1.485,1.4842,1.4834,1.4812,1.4801,1.4801,1.4791,1.4799,1.4798,1.4795,1.4757,1.4755,1.4807,1.4807,1.4807,1.4807,1.4807,1.4807,1.4972,1.4976,1.4962,1.496,1.4947,1.4943,1.4937,1.4927,1.4916,1.4908,1.4901,1.4887,1.487,1.4857,1.4848,1.4842,1.4838,1.4849,1.484,1.4804,1.4798,1.4792,1.479,1.4849,1.4849,1.4878,1.4878,1.4878]}]]